DW3800 Weather Reports


time (UTC)temp
C
wind
direction
speed
KPH
gust
KPH
rain 1hr
cm
rain 24hr
cm
rain mn
cm
humidity
%
barometer
mb
20260906021014 22 125 0.0 0.0 0.00 0.00 0.00 85 1020.4
20260906020514 23 121 0.0 0.0 0.00 0.00 0.00 85 1020.3
20260906020013 23 75 1.6 1.6 0.00 0.00 0.00 85 1020.0
20260906015513 23 93 0.0 0.0 0.00 0.00 0.00 84 1019.8
20260906015012 23 86 0.0 1.6 0.00 0.00 0.00 84 1019.9
20260906014507 23 62 1.6 1.6 0.00 0.00 0.00 84 1019.7
20260906014003 23 47 0.0 1.6 0.00 0.00 0.00 83 1019.6
20260906013458 23 102 0.0 1.6 0.00 0.00 0.00 83 1019.5
20260906012954 23 73 1.6 3.2 0.00 0.00 0.00 82 1019.6
20260906012449 23 139 1.6 1.6 0.00 0.00 0.00 82 1019.3
20260906011948 23 104 0.0 1.6 0.00 0.00 0.00 82 1019.4
20260906011444 24 111 1.6 1.6 0.00 0.00 0.00 81 1019.5
20260906010939 24 113 0.0 4.8 0.00 0.00 0.00 80 1019.4
20260906010434 24 123 0.0 1.6 0.00 0.00 0.00 80 1019.3
20260906005930 25 100 1.6 4.8 0.00 0.00 0.00 80 1019.3
20260906005430 25 111 0.0 8.0 0.00 0.00 0.00 79 1018.9
20260906004928 25 89 3.2 4.8 0.00 0.00 0.00 79 1018.8
20260906004422 25 95 1.6 3.2 0.00 0.00 0.00 79 1018.4
20260906003919 25 111 1.6 8.0 0.00 0.00 0.00 78 1018.5
20260906003414 25 95 1.6 9.7 0.00 0.00 0.00 78 1018.5
20260906002909 26 113 4.8 9.7 0.00 0.00 0.00 77 1018.9
20260906002409 26 91 0.0 3.2 0.00 0.00 0.00 75 1018.9
20260906001904 26 82 1.6 1.6 0.00 0.00 0.00 74 1018.9
20260906001400 26 108 0.0 11.3 0.00 0.00 0.00 74 1019.0
20260906000900 26 39 3.2 11.3 0.00 0.00 0.00 73 1018.8
20260906000400 26 18 1.6 11.3 0.00 0.00 0.00 73 1019.0
20260905235855 27 92 1.6 4.8 0.00 0.00 0.00 72 1018.6
20260905235349 27 74 1.6 3.2 0.00 0.00 0.00 72 1018.6
20260905234845 27 79 0.0 11.3 0.00 0.00 0.00 71 1018.4
20260905234340 27 43 4.8 12.9 0.00 0.00 0.00 71 1018.5
20260905233835 27 84 0.0 4.8 0.00 0.00 0.00 71 1018.3
20260905233330 27 354 1.6 11.3 0.00 0.00 0.00 70 1018.2
20260905232829 27 288 3.2 8.0 0.00 0.00 0.00 70 1018.2
20260905232325 27 195 3.2 9.7 0.00 0.00 0.00 70 1018.1
20260905231821 28 77 0.0 11.3 0.00 0.00 0.00 68 1018.2
20260905231316 28 140 3.2 11.3 0.00 0.00 0.00 67 1017.8
20260905230812 28 15 4.8 8.0 0.00 0.00 0.00 66 1017.9
20260905230310 28 95 0.0 9.7 0.00 0.00 0.00 65 1018.1
20260905225809 28 27 6.4 11.3 0.00 0.00 0.00 65 1018.1
20260905225306 28 112 3.2 8.0 0.00 0.00 0.00 65 1018.3
20260905224804 28 45 3.2 16.1 0.00 0.00 0.00 66 1018.3
20260905224300 28 202 1.6 4.8 0.00 0.00 0.00 66 1018.3
20260905223755 28 256 4.8 4.8 0.00 0.00 0.00 65 1018.2
20260905223252 28 223 3.2 9.7 0.00 0.00 0.00 65 1018.2
20260905222747 28 173 4.8 8.0 0.00 0.00 0.00 65 1018.3
20260905222246 29 125 1.6 4.8 0.00 0.00 0.00 65 1018.2
20260905221742 28 188 0.0 11.3 0.00 0.00 0.00 65 1018.1
20260905221239 29 203 4.8 9.7 0.00 0.00 0.00 64 1018.0
20260905220735 29 119 1.6 4.8 0.00 0.00 0.00 65 1018.1
20260905220231 29 258 1.6 8.0 0.00 0.00 0.00 65 1017.8
20260905215730 29 353 4.8 12.9 0.00 0.00 0.00 65 1017.8
20260905215226 29 8 6.4 11.3 0.00 0.00 0.00 66 1018.0
20260905214721 29 23 4.8 14.5 0.00 0.00 0.00 66 1018.1
20260905214217 30 41 1.6 8.0 0.00 0.00 0.00 65 1018.1
20260905213712 30 128 0.0 11.3 0.00 0.00 0.00 65 1018.2
20260905213208 29 35 4.8 12.9 0.00 0.00 0.00 65 1018.2
20260905212703 29 100 3.2 11.3 0.00 0.00 0.00 66 1018.2
20260905212202 29 126 4.8 8.0 0.00 0.00 0.00 64 1018.3
20260905211657 29 125 3.2 16.1 0.00 0.00 0.00 65 1018.2
20260905211152 29 156 1.6 9.7 0.00 0.00 0.00 66 1018.5
20260905210649 28 198 1.6 9.7 0.00 0.00 0.00 67 1018.5
20260905210149 28 310 3.2 4.8 0.00 0.00 0.00 67 1019.2
20260905205648 28 351 3.2 4.8 0.00 0.00 0.00 69 1019.0
20260905205147 28 215 0.0 8.0 0.00 0.00 0.00 71 1019.3
20260905204647 28 230 1.6 3.2 0.00 0.00 0.00 68 1019.6
20260905204142 28 203 1.6 9.7 0.00 0.00 0.00 70 1019.5
20260905203637 28 306 1.6 4.8 0.00 0.00 0.00 70 1019.4
20260905203132 28 231 1.6 4.8 0.00 0.00 0.00 69 1019.7
20260905202628 28 27 0.0 3.2 0.00 0.00 0.00 70 1019.5
20260905202123 28 170 0.0 3.2 0.00 0.00 0.00 70 1019.7
20260905201618 28 327 6.4 9.7 0.00 0.00 0.00 71 1019.8
20260905201118 28 314 1.6 8.0 0.00 0.00 0.00 71 1019.9
20260905200614 28 201 0.0 1.6 0.00 0.00 0.00 70 1019.8
20260905200109 28 189 0.0 1.6 0.00 0.00 0.00 70 1019.9
20260905195601 28 133 1.6 4.8 0.00 0.00 0.00 70 1019.9
20260905195057 28 65 3.2 4.8 0.00 0.00 0.00 70 1020.0
20260905194557 28 157 1.6 4.8 0.00 0.00 0.00 71 1020.3
20260905194056 28 157 0.0 1.6 0.00 0.00 0.00 71 1020.1
20260905193551 28 14 4.8 4.8 0.00 0.00 0.00 70 1020.1
20260905193046 28 184 0.0 1.6 0.00 0.00 0.00 71 1020.3
20260905192542 27 185 1.6 4.8 0.00 0.00 0.00 71 1020.2
20260905192038 27 321 3.2 4.8 0.00 0.00 0.00 71 1020.3
20260905191536 28 187 1.6 3.2 0.00 0.00 0.00 71 1020.2
20260905191036 27 78 1.6 3.2 0.00 0.00 0.00 73 1020.3
20260905190533 28 132 3.2 4.8 0.00 0.00 0.00 73 1020.4
20260905190028 27 127 1.6 4.8 0.00 0.00 0.00 73 1020.3
20260905185527 27 181 0.0 1.6 0.00 0.00 0.00 73 1020.3
20260905185026 27 7 3.2 8.0 0.00 0.00 0.00 75 1020.3
20260905184521 27 102 1.6 8.0 0.00 0.00 0.00 75 1020.1
20260905184019 27 18 4.8 4.8 0.00 0.00 0.00 74 1020.3
20260905183514 27 159 1.6 3.2 0.00 0.00 0.00 75 1020.0
20260905183009 27 154 1.6 3.2 0.00 0.00 0.00 75 1020.4
20260905182509 26 147 0.0 8.0 0.00 0.00 0.00 77 1020.2
20260905182003 26 123 0.0 4.8 0.00 0.00 0.00 77 1020.2
20260905181458 26 64 1.6 4.8 0.00 0.00 0.00 78 1020.4
20260905180957 26 31 6.4 9.7 0.00 0.00 0.00 79 1020.5
20260905180452 26 136 0.0 4.8 0.00 0.00 0.00 78 1020.5
20260905175947 26 129 0.0 3.2 0.00 0.00 0.00 79 1020.5
20260905175447 26 131 3.2 4.8 0.00 0.00 0.00 79 1020.7
20260905174943 26 7 1.6 9.7 0.00 0.00 0.00 80 1020.6
20260905174437 26 221 1.6 1.6 0.00 0.00 0.00 79 1020.7
20260905173933 26 137 0.0 4.8 0.00 0.00 0.00 80 1020.9
20260905173430 25 9 3.2 3.2 0.00 0.00 0.00 80 1021.0
20260905172925 25 80 3.2 4.8 0.00 0.00 0.00 81 1021.2
20260905172422 25 74 1.6 8.0 0.00 0.00 0.00 83 1021.2
20260905171918 25 112 1.6 4.8 0.00 0.00 0.00 82 1021.1
20260905171410 25 132 1.6 3.2 0.00 0.00 0.00 84 1020.9
20260905170905 24 163 0.0 4.8 0.00 0.00 0.00 84 1021.3
20260905170401 24 91 1.6 4.8 0.00 0.00 0.00 85 1020.9
20260905165901 23 357 3.2 4.8 0.00 0.00 0.00 86 1021.1
20260905165355 23 357 1.6 3.2 0.00 0.00 0.00 86 1021.0
20260905164850 23 135 4.8 9.7 0.00 0.00 0.00 86 1021.1
20260905164345 23 56 1.6 1.6 0.00 0.00 0.00 87 1021.3
20260905163840 23 133 1.6 1.6 0.00 0.00 0.00 89 1021.4
20260905163336 22 332 1.6 1.6 0.00 0.00 0.00 90 1021.3
20260905162832 22 232 1.6 1.6 0.00 0.00 0.00 90 1021.2
20260905162326 22 247 1.6 1.6 0.00 0.00 0.00 91 1021.3
20260905161821 22 79 1.6 4.8 0.00 0.00 0.00 90 1021.5
20260905161321 22 272 0.0 1.6 0.00 0.00 0.00 91 1021.3
20260905160819 22 141 0.0 3.2 0.00 0.00 0.00 92 1021.3
20260905160314 22 52 3.2 4.8 0.00 0.00 0.00 92 1021.4
20260905155808 22 134 1.6 3.2 0.00 0.00 0.00 92 1021.2
20260905155307 22 72 4.8 4.8 0.00 0.00 0.00 91 1020.8
20260905154801 22 324 3.2 4.8 0.00 0.00 0.00 91 1020.9
20260905154257 22 24 1.6 8.0 0.00 0.00 0.00 93 1020.6
20260905153752 21 230 1.6 1.6 0.00 0.00 0.00 95 1020.8
20260905153248 21 15 1.6 4.8 0.00 0.00 0.00 96 1020.9
20260905152743 21 198 0.0 8.0 0.00 0.00 0.00 97 1020.8
20260905152237 21 10 0.0 1.6 0.00 0.00 0.00 97 1020.9
20260905151736 21 101 0.0 3.2 0.00 0.00 0.00 98 1020.8
20260905151233 21 249 0.0 3.2 0.00 0.00 0.00 99 1020.6
20260905150732 20 291 0.0 3.2 0.00 0.00 0.00 99 1020.7
20260905150232 20 19 1.6 4.8 0.00 0.00 0.00 99 1020.7
20260905145729 20 288 0.0 0.0 0.00 0.00 0.00 99 1020.8
20260905145224 20 357 3.2 8.0 0.00 0.00 0.00 99 1020.9
20260905144723 20 307 0.0 3.2 0.00 0.00 0.00 99 1020.7
20260905144218 20 235 0.0 0.0 0.00 0.00 0.00 99 1020.8
20260905143717 20 49 0.0 3.2 0.00 0.00 0.00 99 1020.6
20260905143217 20 323 1.6 1.6 0.00 0.00 0.00 99 1020.8
20260905142716 20 68 0.0 0.0 0.00 0.00 0.00 99 1020.8
20260905142210 20 343 0.0 1.6 0.00 0.00 0.00 99 1020.7
20260905141706 20 17 0.0 3.2 0.00 0.00 0.00 99 1020.9
20260905141202 20 247 0.0 0.0 0.00 0.00 0.00 99 1020.8
20260905140657 20 175 0.0 0.0 0.00 0.00 0.00 99 1020.7
20260905140151 20 107 0.0 1.6 0.00 0.00 0.00 99 1020.9
20260905135646 20 323 1.6 4.8 0.00 0.00 0.00 99 1020.6
20260905135142 20 271 0.0 1.6 0.00 0.00 0.00 99 1020.4
20260905134636 20 324 0.0 3.2 0.00 0.00 0.00 99 1020.7
20260905134134 20 53 1.6 1.6 0.00 0.00 0.00 99 1020.6
20260905133630 20 67 0.0 1.6 0.00 0.00 0.00 99 1020.6
20260905133125 20 339 0.0 1.6 0.00 0.00 0.00 99 1020.5
20260905132624 20 122 0.0 1.6 0.00 0.00 0.00 99 1020.3
20260905132119 20 15 1.6 3.2 0.00 0.00 0.00 99 1020.2
20260905131614 20 288 0.0 1.6 0.00 0.00 0.00 99 1019.9
20260905131104 20 64 0.0 4.8 0.00 0.00 0.00 99 1019.8
20260905130603 20 162 0.0 0.0 0.00 0.00 0.00 99 1019.6
20260905130058 20 105 0.0 11.3 0.00 0.00 0.00 99 1019.4
20260905125557 20 336 1.6 4.8 0.00 0.00 0.00 99 1019.3
20260905125053 20 129 0.0 4.8 0.00 0.00 0.00 99 1019.2
20260905124550 19 314 4.8 4.8 0.00 0.00 0.00 99 1019.2
20260905124045 19 334 4.8 8.0 0.00 0.00 0.00 99 1019.1
20260905123540 19 306 3.2 4.8 0.00 0.00 0.00 99 1019.2
20260905123038 19 297 0.0 4.8 0.00 0.00 0.00 99 1019.2
20260905122537 19 92 1.6 8.0 0.00 0.00 0.00 99 1019.5
20260905122032 19 308 3.2 8.0 0.00 0.00 0.00 99 1019.3
20260905121531 19 50 1.6 4.8 0.00 0.00 0.00 99 1019.5
20260905121027 19 211 1.6 3.2 0.00 0.00 0.00 99 1019.4
20260905120520 19 87 0.0 3.2 0.00 0.00 0.00 99 1019.3
20260905120016 19 92 0.0 0.0 0.00 0.00 0.00 99 1019.4
20260905115515 19 334 0.0 4.8 0.00 0.00 0.00 99 1019.2
20260905115010 19 20 3.2 4.8 0.00 0.00 0.00 99 1019.0
20260905114509 19 70 0.0 1.6 0.00 0.00 0.00 99 1019.0
20260905114008 19 332 0.0 3.2 0.00 0.00 0.00 99 1019.0
20260905113504 19 302 4.8 4.8 0.00 0.00 0.00 99 1018.9
20260905112959 19 39 1.6 3.2 0.00 0.00 0.00 99 1019.2
20260905112454 19 331 1.6 3.2 0.00 0.00 0.00 99 1019.1
20260905111949 19 310 0.0 3.2 0.00 0.00 0.00 99 1019.0
20260905111444 19 323 3.2 4.8 0.00 0.00 0.00 99 1019.1
20260905110943 19 300 1.6 3.2 0.00 0.00 0.00 99 1018.8
20260905110443 19 281 1.6 3.2 0.00 0.00 0.00 99 1018.6
20260905105937 19 336 1.6 3.2 0.00 0.00 0.00 99 1018.6
20260905105432 19 24 0.0 3.2 0.00 0.00 0.00 99 1018.9
20260905104931 19 280 1.6 3.2 0.00 0.00 0.00 99 1018.6
20260905104427 19 330 0.0 1.6 0.00 0.00 0.00 99 1018.4
20260905103922 19 18 0.0 0.0 0.00 0.00 0.00 99 1018.6
20260905103417 19 15 0.0 0.0 0.00 0.00 0.00 99 1018.5
20260905102913 19 347 0.0 0.0 0.00 0.00 0.00 99 1018.5
20260905102409 19 11 0.0 0.0 0.00 0.00 0.00 99 1018.9
20260905101904 19 292 0.0 0.0 0.00 0.00 0.00 99 1018.9
20260905101402 19 148 0.0 0.0 0.00 0.00 0.00 99 1018.8
20260905100857 18 281 0.0 0.0 0.00 0.00 0.00 99 1018.4
20260905100353 18 280 0.0 0.0 0.00 0.00 0.00 99 1018.3
20260905095852 18 12 1.6 3.2 0.00 0.00 0.00 99 1018.1
20260905095347 18 306 0.0 0.0 0.00 0.00 0.00 99 1018.0
20260905094841 18 331 0.0 3.2 0.00 0.00 0.00 99 1017.9
20260905094337 18 333 0.0 3.2 0.00 0.00 0.00 99 1018.0
20260905093836 18 348 1.6 11.3 0.00 0.00 0.00 99 1017.9
20260905093332 18 18 0.0 4.8 0.00 0.00 0.00 99 1018.0
20260905092828 18 24 0.0 8.0 0.00 0.00 0.00 99 1018.0
20260905092327 18 347 0.0 8.0 0.00 0.00 0.00 99 1018.1
20260905091822 18 101 0.0 9.7 0.00 0.00 0.00 99 1018.3
20260905091322 18 22 0.0 4.8 0.00 0.00 0.00 99 1018.3
20260905090820 18 21 0.0 4.8 0.00 0.00 0.00 99 1018.3
20260905090317 18 342 4.8 11.3 0.00 0.00 0.00 99 1018.6
20260905085811 18 280 3.2 8.0 0.00 0.00 0.00 99 1018.4
20260905085310 18 43 0.0 9.7 0.00 0.00 0.00 99 1018.3
20260905084806 18 16 0.0 8.0 0.00 0.00 0.00 99 1018.3
20260905084305 18 39 1.6 8.0 0.00 0.00 0.00 99 1018.5
20260905083801 18 343 3.2 12.9 0.00 0.00 0.00 99 1018.4
20260905083256 18 13 0.0 1.6 0.00 0.00 0.00 99 1018.5
20260905082752 18 291 4.8 11.3 0.00 0.00 0.00 99 1018.8
20260905082248 18 63 1.6 4.8 0.00 0.00 0.00 99 1018.5
20260905081747 18 352 0.0 1.6 0.00 0.00 0.00 99 1018.6
20260905081243 18 94 0.0 9.7 0.00 0.00 0.00 99 1018.9
20260905080737 18 2 1.6 3.2 0.00 0.00 0.00 99 1018.8
20260905080237 18 40 0.0 1.6 0.00 0.00 0.00 99 1018.6
20260905075736 18 341 0.0 1.6 0.00 0.00 0.00 99 1018.6
20260905075235 18 8 0.0 3.2 0.00 0.00 0.00 99 1018.6
20260905074734 18 66 0.0 11.3 0.00 0.00 0.00 99 1018.8
20260905074230 18 37 1.6 4.8 0.00 0.00 0.00 99 1018.6
20260905073725 18 310 1.6 8.0 0.00 0.00 0.00 99 1018.8
20260905073221 18 308 0.0 1.6 0.00 0.00 0.00 99 1018.6
20260905072720 18 322 0.0 14.5 0.00 0.00 0.00 99 1019.0
20260905072216 18 330 0.0 4.8 0.00 0.00 0.00 99 1018.9
20260905071712 18 359 0.0 1.6 0.00 0.00 0.00 99 1018.8
20260905071208 18 13 4.8 9.7 0.00 0.00 0.00 99 1018.8
20260905070703 18 6 3.2 8.0 0.00 0.00 0.00 99 1018.4
20260905070159 18 36 1.6 9.7 0.00 0.00 0.00 99 1018.6
20260905065657 18 121 1.6 3.2 0.00 0.00 0.00 98 1018.9
20260905065151 18 2 3.2 8.0 0.00 0.00 0.00 98 1019.0
20260905064647 18 146 0.0 8.0 0.00 0.00 0.00 98 1019.0
20260905064143 18 223 0.0 11.3 0.00 0.00 0.00 98 1018.8
20260905063640 18 34 4.8 8.0 0.00 0.00 0.00 98 1018.9
20260905063138 18 302 4.8 8.0 0.00 0.00 0.00 98 1018.8
20260905062633 18 8 3.2 3.2 0.00 0.00 0.00 97 1018.8
20260905062132 18 315 1.6 8.0 0.00 0.00 0.00 97 1018.8
20260905061627 18 347 1.6 3.2 0.00 0.00 0.00 97 1018.6
20260905061126 19 68 0.0 0.0 0.00 0.00 0.00 97 1018.6
20260905060622 19 340 0.0 4.8 0.00 0.00 0.00 97 1018.4
20260905060119 19 339 0.0 1.6 0.00 0.00 0.00 97 1018.5
20260905055617 19 92 1.6 8.0 0.00 0.00 0.00 96 1018.5
20260905055112 19 354 0.0 11.3 0.00 0.00 0.00 96 1018.4
20260905054608 19 354 0.0 3.2 0.00 0.00 0.00 96 1018.3
20260905054103 19 293 0.0 3.2 0.00 0.00 0.00 96 1018.1
20260905053603 19 314 3.2 4.8 0.00 0.00 0.00 96 1018.3
20260905053058 20 12 0.0 9.7 0.00 0.00 0.00 95 1018.2
20260905052557 20 336 4.8 4.8 0.00 0.00 0.00 95 1018.2
20260905052052 20 218 0.0 8.0 0.00 0.00 0.00 95 1018.0
20260905051548 20 349 0.0 1.6 0.00 0.00 0.00 95 1017.9
20260905051044 20 278 1.6 9.7 0.00 0.00 0.00 95 1017.8
20260905050540 20 303 3.2 12.9 0.00 0.00 0.00 94 1018.2
20260905050037 20 331 0.0 1.6 0.00 0.00 0.00 94 1018.2
20260905045531 20 357 0.0 8.0 0.00 0.00 0.00 94 1018.0
20260905045027 20 331 0.0 3.2 0.00 0.00 0.00 94 1018.2
20260905044526 20 354 3.2 8.0 0.00 0.00 0.00 93 1018.1
20260905044021 20 355 1.6 9.7 0.00 0.00 0.00 93 1017.9
20260905043520 20 26 1.6 11.3 0.00 0.00 0.00 93 1018.1
20260905043016 20 359 0.0 4.8 0.00 0.00 0.00 93 1018.1
20260905042514 20 357 1.6 9.7 0.00 0.00 0.00 92 1018.2
20260905042010 20 357 4.8 8.0 0.00 0.00 0.00 92 1018.0
20260905041505 20 342 1.6 4.8 0.00 0.00 0.00 92 1017.9
20260905041001 21 50 0.0 8.0 0.00 0.00 0.00 92 1018.2
20260905040500 21 2 1.6 3.2 0.00 0.00 0.00 91 1018.2
20260905035959 21 344 1.6 3.2 0.00 0.00 0.00 91 1018.2
20260905035454 21 22 1.6 3.2 0.00 0.00 0.00 91 1018.2
20260905034952 21 356 1.6 4.8 0.00 0.00 0.00 90 1018.1
20260905034447 21 328 8.0 11.3 0.00 0.00 0.00 90 1018.1
20260905033945 21 1 4.8 11.3 0.00 0.00 0.00 90 1018.2
20260905033445 21 327 3.2 8.0 0.00 0.00 0.00 89 1018.1
20260905032940 21 262 1.6 11.3 0.00 0.00 0.00 89 1018.0
20260905032436 21 89 0.0 9.7 0.00 0.00 0.00 89 1018.0
20260905031930 21 330 1.6 3.2 0.00 0.00 0.00 88 1018.0
20260905031426 21 59 1.6 8.0 0.00 0.00 0.00 88 1018.0
20260905030921 22 280 3.2 4.8 0.00 0.00 0.00 88 1018.1
20260905030417 22 36 1.6 4.8 0.00 0.00 0.00 87 1018.1
20260905025915 22 77 0.0 9.7 0.00 0.00 0.00 87 1017.8
20260905025411 22 328 1.6 12.9 0.00 0.00 0.00 86 1017.8
20260905024908 22 101 4.8 11.3 0.00 0.00 0.00 86 1018.0
20260905024402 22 7 4.8 8.0 0.00 0.00 0.00 86 1017.8
20260905023858 22 10 1.6 11.3 0.00 0.00 0.00 85 1017.8
20260905023353 23 291 4.8 17.7 0.00 0.00 0.00 85 1017.7
20260905022852 23 3 1.6 11.3 0.00 0.00 0.00 85 1017.6
20260905022347 23 2 4.8 9.7 0.00 0.00 0.00 84 1017.7
20260905021842 23 336 3.2 11.3 0.00 0.00 0.00 84 1017.5
20260905021337 23 293 11.3 14.5 0.00 0.00 0.00 84 1017.6